Flag for India Weather past 2 weeks in Faridkot, Punjab, India

Now
91 °F

Passing clouds.


Feels Like: 103 °F
Forecast: 79 / 101 °F
Wind: No wind

Location: Lahore Airport

Current Time: Aug 30, 2015 at 9:33:11 AM

Latest Report: Aug 30, 2015 at 8:55 AM


Visibility: 4 mi

Pressure: 29.65 "Hg

Humidity: 59%

Dew point: 75 °F

Location of FaridkotLocation

Historic Weather in Faridkot — Graph

°F

Faridkot temperature yesterday

Maximum temperature yesterday: 100 °F (at 2:25 PM)
Minimum temperature yesterday: 82 °F (at 3:55 AM)
Average temperature yesterday: 90 °F

Past Weeks' High & Low Weather Summary

 TemperatureHumidityPressure
High100 °F (Aug 17, 2:25 PM)100% (Aug 21, 2:55 PM)29.71 "Hg (Aug 21, 2:55 PM)
Low73 °F (Aug 22, 12:25 AM)26% (Aug 18, 6:55 AM)29.50 "Hg (Aug 20, 5:55 PM)
Average88 °F70%29.61 "Hg
* Reported Aug 15 2:30 PM — Aug 30 8:30 AM, Faridkot, Weather by CustomWeather, © 2015

Note: Actual official high and low records may vary slightly from our data, if they occured in-between our weather recording intervals... More about our weather records

Advertising

Faridkot weather history for previous 24 hours

 ConditionsComfort  
Time TempWeatherWind HumidityBarometerVisibility
8:30 AM
Sun, Aug 30
90 °FClear.No wind63%29.65 "Hg4 mi
8:00 AM88 °FPassing clouds.No wind70%29.65 "Hg4 mi
7:25 AM86 °FPassing clouds.No wind75%29.62 "Hg4 mi
6:55 AM86 °FPassing clouds.No wind75%29.62 "Hg3 mi
6:25 AM84 °FPassing clouds.No wind79%29.62 "Hg3 mi
5:55 AM84 °FPassing clouds.No wind79%29.62 "Hg2 mi
5:25 AM84 °FPassing clouds.No wind79%29.59 "Hg2 mi
4:55 AM84 °FPassing clouds.No wind79%29.59 "Hg2 mi
4:25 AM84 °FPassing clouds.No wind79%29.59 "Hg2 mi
3:55 AM86 °FPassing clouds.No wind75%29.59 "Hg2 mi
3:25 AM86 °FPassing clouds.3 mph75%29.59 "Hg2 mi
2:55 AM86 °FPassing clouds.3 mph75%29.59 "Hg2 mi
2:25 AM86 °FPassing clouds.3 mph75%29.59 "Hg2 mi
1:55 AM86 °FPassing clouds.5 mph70%29.59 "Hg2 mi
1:25 AM86 °FPassing clouds.5 mph70%29.59 "Hg2 mi
12:55 AM88 °FPassing clouds.3 mph66%29.59 "Hg2 mi
12:25 AM88 °FPassing clouds.6 mph66%29.62 "Hg2 mi
11:55 PM
Sat, Aug 29
88 °FPassing clouds.5 mph66%29.59 "Hg2 mi
11:25 PM88 °FPassing clouds.No wind66%29.59 "Hg2 mi
10:55 PM88 °FPassing clouds.3 mph66%29.59 "Hg2 mi
10:25 PM88 °FPassing clouds.3 mph66%29.59 "Hg2 mi
9:55 PM90 °FPassing clouds.3 mph63%29.59 "Hg3 mi
9:25 PM91 °FPassing clouds.6 mph59%29.59 "Hg4 mi
8:55 PM93 °FPassing clouds.No wind53%29.59 "Hg4 mi
8:25 PM93 °FPassing clouds.3 mph53%29.59 "Hg4 mi
7:55 PM93 °FPassing clouds.3 mph53%29.59 "Hg4 mi
7:25 PM95 °FPassing clouds.3 mph50%29.56 "Hg4 mi
6:55 PM95 °FScattered clouds.5 mph50%29.56 "Hg4 mi
6:25 PM97 °FScattered clouds.6 mph47%29.56 "Hg4 mi
5:25 PM99 °FScattered clouds.5 mph44%29.56 "Hg4 mi
4:55 PM100 °FScattered clouds.6 mph42%29.59 "Hg4 mi
4:25 PM100 °FScattered clouds.7 mph42%29.59 "Hg5 mi
3:25 PM100 °FScattered clouds.9 mph42%29.59 "Hg6 mi
2:55 PM100 °FPassing clouds.7 mph40%29.62 "Hg6 mi
2:25 PM100 °FPassing clouds.9 mph40%29.62 "Hg6 mi
12:55 PM99 °FClear.10 mph39%29.65 "Hg6 mi
12:25 PM97 °FClear.7 mph42%29.65 "Hg6 mi
11:25 AM95 °FPassing clouds.7 mph44%29.65 "Hg5 mi
10:55 AM93 °FPassing clouds.6 mph49%29.65 "Hg4 mi
10:25 AM93 °FPassing clouds.5 mph49%29.65 "Hg4 mi
9:55 AM93 °FPassing clouds.5 mph56%29.65 "Hg4 mi
9:25 AM91 °FClear.3 mph59%29.65 "Hg3 mi
Weather by CustomWeather, © 2015

See weather overviewHow to use our weather pages